Time,TemperatureF,DewpointF,PressureIn,WindDirection,WindDirectionDegrees,WindSpeedMPH,WindSpeedGustMPH,Humidity,HourlyPrecipIn,Conditions,Clouds,dailyrainin,SoftwareType,DateUTC
2013-05-06 00:01:00,-999.0,-99.9,-100.00,SE,125,3.0,4.0,-999,-99.99,,,-99.99,,2013-05-06 07:01:00,
2013-05-06 00:11:00,-999.0,-99.9,-100.00,ESE,111,4.0,5.0,-999,-99.99,,,-99.99,,2013-05-06 07:11:00,
2013-05-06 00:22:00,60.0,-99.9,-100.00,SE,124,3.0,4.0,-999,-99.99,,,-99.99,,2013-05-06 07:22:00,
2013-05-06 00:32:00,-999.0,-99.9,-100.00,SE,124,3.0,5.0,-999,-99.99,,,-99.99,,2013-05-06 07:32:00,
2013-05-06 00:42:00,57.0,-99.9,-100.00,East,82,2.0,3.0,-999,-99.99,,,-99.99,,2013-05-06 07:42:00,
2013-05-06 00:52:00,60.0,-99.9,-100.00,ESE,114,2.0,4.0,-999,-99.99,,,-99.99,,2013-05-06 07:52:00,
2013-05-06 01:02:00,-999.0,-99.9,-100.00,ESE,105,2.0,3.0,-999,-99.99,,,-99.99,,2013-05-06 08:02:00,
2013-05-06 01:12:00,-999.0,-99.9,-100.00,ESE,105,3.0,4.0,-999,-99.99,,,-99.99,,2013-05-06 08:12:00,
2013-05-06 01:22:00,59.0,-99.9,-100.00,ESE,107,3.0,3.0,-999,-99.99,,,-99.99,,2013-05-06 08:22:00,
2013-05-06 01:32:00,-999.0,-99.9,-100.00,SE,125,2.0,3.0,-999,-99.99,,,-99.99,,2013-05-06 08:32:00,
2013-05-06 01:42:00,59.0,-99.9,-100.00,SE,145,2.0,3.0,-999,-99.99,,,-99.99,,2013-05-06 08:42:00,
2013-05-06 01:52:00,-999.0,-99.9,-100.00,SE,146,5.0,7.0,-999,-99.99,,,-99.99,,2013-05-06 08:52:00,
2013-05-06 02:02:00,-999.0,-99.9,-100.00,SE,132,6.0,7.0,-999,-99.99,,,-99.99,,2013-05-06 09:02:00,
2013-05-06 02:11:00,56.0,-99.9,-100.00,SE,136,4.0,6.0,-999,-99.99,,,-99.99,,2013-05-06 09:11:00,
2013-05-06 02:22:00,-999.0,-99.9,-100.00,SE,144,6.0,9.0,-999,-99.99,,,-99.99,,2013-05-06 09:22:00,
2013-05-06 02:33:00,-999.0,-99.9,-100.00,SE,142,4.0,7.0,-999,-99.99,,,-99.99,,2013-05-06 09:33:00,
2013-05-06 02:43:00,57.0,-99.9,-100.00,ESE,115,4.0,5.0,-999,-99.99,,,-99.99,,2013-05-06 09:43:00,
2013-05-06 02:53:00,57.0,-99.9,-100.00,SE,140,3.0,5.0,-999,-99.99,,,-99.99,,2013-05-06 09:53:00,
2013-05-06 03:03:00,-999.0,-99.9,-100.00,ESE,108,2.0,4.0,-999,-99.99,,,-99.99,,2013-05-06 10:03:00,
2013-05-06 03:12:00,58.0,-99.9,-100.00,ESE,108,3.0,3.0,-999,-99.99,,,-99.99,,2013-05-06 10:12:00,
2013-05-06 03:22:00,-999.0,-99.9,-100.00,East,85,3.0,4.0,-999,-99.99,,,-99.99,,2013-05-06 10:22:00,
2013-05-06 03:33:00,-999.0,-99.9,-100.00,ESE,116,3.0,5.0,-999,-99.99,,,-99.99,,2013-05-06 10:33:00,
2013-05-06 03:42:00,59.0,-99.9,-100.00,ESE,115,3.0,4.0,-999,-99.99,,,-99.99,,2013-05-06 10:42:00,
2013-05-06 03:52:00,59.0,-99.9,-100.00,NNE,27,2.0,2.0,-999,-99.99,,,-99.99,,2013-05-06 10:52:00,
2013-05-06 04:02:00,-999.0,-99.9,-100.00,NE,40,3.0,4.0,-999,-99.99,,,-99.99,,2013-05-06 11:02:00,
2013-05-06 04:12:00,57.0,-99.9,-100.00,NE,37,4.0,5.0,-999,-99.99,,,-99.99,,2013-05-06 11:12:00,
2013-05-06 04:22:00,-999.0,-99.9,-100.00,NNE,13,3.0,4.0,-999,-99.99,,,-99.99,,2013-05-06 11:22:00,
2013-05-06 04:42:00,-999.0,-99.9,-100.00,ESE,108,2.0,2.0,-999,-99.99,,,-99.99,,2013-05-06 11:42:00,
2013-05-06 04:52:00,56.0,-99.9,-100.00,NE,47,2.0,3.0,-999,-99.99,,,-99.99,,2013-05-06 11:52:00,
2013-05-06 05:02:00,-999.0,-99.9,-100.00,NE,56,1.0,2.0,-999,-99.99,,,-99.99,,2013-05-06 12:02:00,
2013-05-06 05:12:00,56.0,-99.9,-100.00,NNE,17,3.0,3.0,-999,-99.99,,,-99.99,,2013-05-06 12:12:00,
2013-05-06 05:22:00,-999.0,-99.9,-100.00,North,353,2.0,3.0,-999,-99.99,,,-99.99,,2013-05-06 12:22:00,
2013-05-06 05:32:00,-999.0,-99.9,-100.00,ENE,62,1.0,2.0,-999,-99.99,,,-99.99,,2013-05-06 12:32:00,
2013-05-06 05:42:00,54.0,-99.9,-100.00,ENE,66,2.0,2.0,-999,-99.99,,,-99.99,,2013-05-06 12:42:00,
2013-05-06 05:52:00,55.0,-99.9,-100.00,ENE,73,1.0,2.0,-999,-99.99,,,-99.99,,2013-05-06 12:52:00,
2013-05-06 06:02:00,-999.0,-99.9,-100.00,NNE,32,2.0,3.0,-999,-99.99,,,-99.99,,2013-05-06 13:02:00,
2013-05-06 06:11:00,53.0,-99.9,-100.00,ENE,74,3.0,3.0,-999,-99.99,,,-99.99,,2013-05-06 13:11:00,
2013-05-06 06:22:00,-999.0,-99.9,-100.00,NE,35,3.0,4.0,-999,-99.99,,,-99.99,,2013-05-06 13:22:00,
2013-05-06 06:32:00,-999.0,-99.9,-100.00,North,357,1.0,2.0,-999,-99.99,,,-99.99,,2013-05-06 13:32:00,
2013-05-06 06:42:00,56.0,-99.9,-100.00,NNE,31,0.0,2.0,-999,-99.99,,,-99.99,,2013-05-06 13:42:00,
2013-05-06 06:52:00,53.0,-99.9,-100.00,NE,48,1.0,3.0,-999,-99.99,,,-99.99,,2013-05-06 13:52:00,
2013-05-06 07:02:00,-999.0,-99.9,-100.00,East,83,1.0,2.0,-999,-99.99,,,-99.99,,2013-05-06 14:02:00,
2013-05-06 07:11:00,56.0,-99.9,-100.00,NE,39,1.0,2.0,-999,-99.99,,,-99.99,,2013-05-06 14:11:00,
2013-05-06 07:22:00,-999.0,-99.9,-100.00,NE,51,2.0,2.0,-999,-99.99,,,-99.99,,2013-05-06 14:22:00,
2013-05-06 07:32:00,-999.0,-99.9,-100.00,NNW,327,0.0,2.0,-999,-99.99,,,-99.99,,2013-05-06 14:32:00,
2013-05-06 07:42:00,60.0,-99.9,-100.00,West,273,1.0,2.0,-999,-99.99,,,-99.99,,2013-05-06 14:42:00,
2013-05-06 07:52:00,59.0,-99.9,-100.00,ENE,64,1.0,2.0,-999,-99.99,,,-99.99,,2013-05-06 14:52:00,
2013-05-06 08:01:00,-999.0,-99.9,-100.00,West,265,7.0,8.0,-999,-99.99,,,-99.99,,2013-05-06 15:01:00,
2013-05-06 08:11:00,-999.0,-99.9,-100.00,WNW,300,6.0,6.0,-999,-99.99,,,-99.99,,2013-05-06 15:11:00,
2013-05-06 08:22:00,55.0,-99.9,-100.00,WNW,294,7.0,8.0,-999,-99.99,,,-99.99,,2013-05-06 15:22:00,
2013-05-06 08:33:00,-999.0,-99.9,-100.00,WNW,302,7.0,8.0,-999,-99.99,,,-99.99,,2013-05-06 15:33:00,
2013-05-06 08:43:00,54.0,-99.9,-100.00,NW,306,5.0,7.0,-999,-99.99,,,-99.99,,2013-05-06 15:43:00,
2013-05-06 08:53:00,57.0,-99.9,-100.00,NW,326,6.0,8.0,-999,-99.99,,,-99.99,,2013-05-06 15:53:00,
2013-05-06 09:03:00,-999.0,-99.9,-100.00,WNW,289,7.0,8.0,-999,-99.99,,,-99.99,,2013-05-06 16:03:00,
2013-05-06 09:13:00,55.0,-99.9,-100.00,WNW,303,7.0,9.0,-999,-99.99,,,-99.99,,2013-05-06 16:13:00,
2013-05-06 09:23:00,-999.0,-99.9,-100.00,WNW,301,8.0,9.0,-999,-99.99,,,-99.99,,2013-05-06 16:23:00,
2013-05-06 09:33:00,-999.0,-99.9,-100.00,NNW,330,5.0,6.0,-999,-99.99,,,-99.99,,2013-05-06 16:33:00,
2013-05-06 09:42:00,61.0,-99.9,-100.00,NW,308,3.0,5.0,-999,-99.99,,,-99.99,,2013-05-06 16:42:00,
2013-05-06 09:52:00,54.0,-99.9,-100.00,NW,313,7.0,8.0,-999,-99.99,,,-99.99,,2013-05-06 16:52:00,
2013-05-06 10:03:00,-999.0,-99.9,-100.00,NW,309,9.0,12.0,-999,-99.99,,,-99.99,,2013-05-06 17:03:00,
2013-05-06 10:12:00,58.0,-99.9,-100.00,NW,311,12.0,13.0,-999,-99.99,,,-99.99,,2013-05-06 17:12:00,
2013-05-06 10:23:00,-999.0,-99.9,-100.00,NW,317,12.0,12.0,-999,-99.99,,,-99.99,,2013-05-06 17:23:00,
2013-05-06 10:32:00,-999.0,-99.9,-100.00,NW,310,11.0,12.0,-999,-99.99,,,-99.99,,2013-05-06 17:32:00,
2013-05-06 10:42:00,58.0,-99.9,-100.00,NW,309,11.0,12.0,-999,-99.99,,,-99.99,,2013-05-06 17:42:00,
2013-05-06 10:52:00,58.0,-99.9,-100.00,NW,307,10.0,11.0,-999,-99.99,,,-99.99,,2013-05-06 17:52:00,
2013-05-06 11:02:00,-999.0,-99.9,-100.00,NW,309,10.0,11.0,-999,-99.99,,,-99.99,,2013-05-06 18:02:00,
2013-05-06 11:12:00,57.0,-99.9,-100.00,NW,306,9.0,10.0,-999,-99.99,,,-99.99,,2013-05-06 18:12:00,
2013-05-06 11:22:00,-999.0,-99.9,-100.00,WNW,300,10.0,10.0,-999,-99.99,,,-99.99,,2013-05-06 18:22:00,
2013-05-06 11:32:00,-999.0,-99.9,-100.00,NW,308,8.0,10.0,-999,-99.99,,,-99.99,,2013-05-06 18:32:00,
2013-05-06 11:43:00,-999.0,-99.9,-100.00,WNW,298,9.0,10.0,-999,-99.99,,,-99.99,,2013-05-06 18:43:00,
2013-05-06 11:53:00,56.0,-99.9,-100.00,WNW,303,11.0,11.0,-999,-99.99,,,-99.99,,2013-05-06 18:53:00,
2013-05-06 12:01:00,-999.0,-99.9,-100.00,WNW,300,7.0,8.0,-999,-99.99,,,-99.99,,2013-05-06 19:01:00,
2013-05-06 12:11:00,57.0,-99.9,-100.00,WNW,296,8.0,8.0,-999,-99.99,,,-99.99,,2013-05-06 19:11:00,
2013-05-06 12:22:00,-999.0,-99.9,-100.00,NW,310,4.0,6.0,-999,-99.99,,,-99.99,,2013-05-06 19:22:00,
2013-05-06 12:32:00,-999.0,-99.9,-100.00,NW,309,4.0,5.0,-999,-99.99,,,-99.99,,2013-05-06 19:32:00,
2013-05-06 12:42:00,-999.0,-99.9,-100.00,WNW,294,3.0,4.0,-999,-99.99,,,-99.99,,2013-05-06 19:42:00,
2013-05-06 12:52:00,57.0,-99.9,-100.00,West,272,3.0,4.0,-999,-99.99,,,-99.99,,2013-05-06 19:52:00,
2013-05-06 13:02:00,-999.0,-99.9,-100.00,West,272,1.0,2.0,-999,-99.99,,,-99.99,,2013-05-06 20:02:00,
2013-05-06 13:11:00,59.0,-99.9,-100.00,NW,318,1.0,2.0,-999,-99.99,,,-99.99,,2013-05-06 20:11:00,
2013-05-06 13:22:00,-999.0,-99.9,-100.00,NNW,327,3.0,4.0,-999,-99.99,,,-99.99,,2013-05-06 20:22:00,
2013-05-06 13:32:00,-999.0,-99.9,-100.00,WNW,296,3.0,4.0,-999,-99.99,,,-99.99,,2013-05-06 20:32:00,
2013-05-06 13:42:00,58.0,-99.9,-100.00,WNW,297,4.0,5.0,-999,-99.99,,,-99.99,,2013-05-06 20:42:00,
2013-05-06 13:52:00,57.0,-99.9,-100.00,NW,304,3.0,4.0,-999,-99.99,,,-99.99,,2013-05-06 20:52:00,
2013-05-06 14:01:00,-999.0,-99.9,-100.00,NW,316,2.0,3.0,-999,-99.99,,,-99.99,,2013-05-06 21:01:00,
2013-05-06 14:11:00,59.0,-99.9,-100.00,WNW,286,1.0,4.0,-999,-99.99,,,-99.99,,2013-05-06 21:11:00,
2013-05-06 14:22:00,-999.0,-99.9,-100.00,WNW,297,2.0,3.0,-999,-99.99,,,-99.99,,2013-05-06 21:22:00,
2013-05-06 14:33:00,-999.0,-99.9,-100.00,NW,313,3.0,5.0,-999,-99.99,,,-99.99,,2013-05-06 21:33:00,
2013-05-06 14:43:00,60.0,-99.9,-100.00,NW,310,3.0,4.0,-999,-99.99,,,-99.99,,2013-05-06 21:43:00,
2013-05-06 14:53:00,58.0,-99.9,-100.00,NW,310,3.0,5.0,-999,-99.99,,,-99.99,,2013-05-06 21:53:00,
2013-05-06 15:03:00,-999.0,-99.9,-100.00,NW,309,4.0,5.0,-999,-99.99,,,-99.99,,2013-05-06 22:03:00,
2013-05-06 15:12:00,-999.0,-99.9,-100.00,NW,318,4.0,5.0,-999,-99.99,,,-99.99,,2013-05-06 22:12:00,
2013-05-06 15:22:00,60.0,-99.9,-100.00,NW,312,6.0,8.0,-999,-99.99,,,-99.99,,2013-05-06 22:22:00,
2013-05-06 15:33:00,-999.0,-99.9,-100.00,NW,306,6.0,7.0,-999,-99.99,,,-99.99,,2013-05-06 22:33:00,
2013-05-06 15:45:00,60.0,-99.9,-100.00,NW,309,6.0,6.0,-999,-99.99,,,-99.99,,2013-05-06 22:45:00,
2013-05-06 15:53:00,61.0,-99.9,-100.00,North,-999,-999.0,-999.0,-999,-99.99,,,-99.99,,2013-05-06 22:53:00,
2013-05-06 16:03:00,-999.0,-99.9,-100.00,NW,316,7.0,8.0,-999,-99.99,,,-99.99,,2013-05-06 23:03:00,
2013-05-06 16:12:00,61.0,-99.9,-100.00,NW,317,7.0,8.0,-999,-99.99,,,-99.99,,2013-05-06 23:12:00,
2013-05-06 16:22:00,-999.0,-99.9,-100.00,WNW,303,8.0,8.0,-999,-99.99,,,-99.99,,2013-05-06 23:22:00,
2013-05-06 16:32:00,-999.0,-99.9,-100.00,WNW,290,6.0,8.0,-999,-99.99,,,-99.99,,2013-05-06 23:32:00,
2013-05-06 16:42:00,61.0,-99.9,-100.00,WNW,285,4.0,5.0,-999,-99.99,,,-99.99,,2013-05-06 23:42:00,
2013-05-06 17:01:00,-999.0,-99.9,-100.00,NNW,329,3.0,4.0,-999,-99.99,,,-99.99,,2013-05-07 00:01:00,
2013-05-06 17:12:00,-999.0,-99.9,-100.00,NW,316,3.0,4.0,-999,-99.99,,,-99.99,,2013-05-07 00:12:00,
2013-05-06 17:22:00,61.0,-99.9,-100.00,NW,310,3.0,4.0,-999,-99.99,,,-99.99,,2013-05-07 00:22:00,
2013-05-06 17:32:00,-999.0,-99.9,-100.00,NNW,328,2.0,3.0,-999,-99.99,,,-99.99,,2013-05-07 00:32:00,
2013-05-06 17:42:00,-999.0,-99.9,-100.00,NNW,332,2.0,2.0,-999,-99.99,,,-99.99,,2013-05-07 00:42:00,
2013-05-06 17:52:00,60.0,-99.9,-100.00,NW,313,3.0,3.0,-999,-99.99,,,-99.99,,2013-05-07 00:52:00,
2013-05-06 18:01:00,-999.0,-99.9,-100.00,NW,306,3.0,3.0,-999,-99.99,,,-99.99,,2013-05-07 01:01:00,
2013-05-06 18:11:00,63.0,-99.9,-100.00,NW,318,3.0,3.0,-999,-99.99,,,-99.99,,2013-05-07 01:11:00,
2013-05-06 18:22:00,-999.0,-99.9,-100.00,NNW,342,2.0,3.0,-999,-99.99,,,-99.99,,2013-05-07 01:22:00,
2013-05-06 18:32:00,-999.0,-99.9,-100.00,NW,322,2.0,3.0,-999,-99.99,,,-99.99,,2013-05-07 01:32:00,
2013-05-06 18:42:00,64.0,-99.9,-100.00,WNW,297,1.0,2.0,-999,-99.99,,,-99.99,,2013-05-07 01:42:00,
2013-05-06 18:53:00,62.0,-99.9,-100.00,NW,308,1.0,1.0,-999,-99.99,,,-99.99,,2013-05-07 01:53:00,
2013-05-06 19:11:00,63.0,-99.9,-100.00,SSW,192,1.0,1.0,-999,-99.99,,,-99.99,,2013-05-07 02:11:00,
2013-05-06 19:22:00,64.0,-99.9,-100.00,SE,137,1.0,1.0,-999,-99.99,,,-99.99,,2013-05-07 02:22:00,
2013-05-06 19:32:00,-999.0,-99.9,-100.00,ESE,117,2.0,2.0,-999,-99.99,,,-99.99,,2013-05-07 02:32:00,
2013-05-06 19:42:00,63.0,-99.9,-100.00,SE,136,1.0,2.0,-999,-99.99,,,-99.99,,2013-05-07 02:42:00,
2013-05-06 19:52:00,60.0,-99.9,-100.00,NW,308,1.0,1.0,-999,-99.99,,,-99.99,,2013-05-07 02:52:00,
2013-05-06 20:02:00,-999.0,-99.9,-100.00,SSE,153,4.0,5.0,-999,-99.99,,,-99.99,,2013-05-07 03:02:00,
2013-05-06 20:12:00,61.0,-99.9,-100.00,SSE,149,3.0,5.0,-999,-99.99,,,-99.99,,2013-05-07 03:12:00,
2013-05-06 20:22:00,-999.0,-99.9,-100.00,SSE,161,5.0,6.0,-999,-99.99,,,-99.99,,2013-05-07 03:22:00,
2013-05-06 20:33:00,-999.0,-99.9,-100.00,SE,130,3.0,4.0,-999,-99.99,,,-99.99,,2013-05-07 03:33:00,
2013-05-06 20:43:00,-999.0,-99.9,-100.00,ESE,120,4.0,4.0,-999,-99.99,,,-99.99,,2013-05-07 03:43:00,
2013-05-06 20:53:00,60.0,-99.9,-100.00,SSE,164,5.0,6.0,-999,-99.99,,,-99.99,,2013-05-07 03:53:00,
2013-05-06 21:03:00,-999.0,-99.9,-100.00,ESE,107,1.0,2.0,-999,-99.99,,,-99.99,,2013-05-07 04:03:00,
2013-05-06 21:12:00,62.0,-99.9,-100.00,East,81,1.0,2.0,-999,-99.99,,,-99.99,,2013-05-07 04:12:00,
2013-05-06 21:23:00,-999.0,-99.9,-100.00,ENE,58,1.0,2.0,-999,-99.99,,,-99.99,,2013-05-07 04:23:00,
2013-05-06 21:33:00,-999.0,-99.9,-100.00,SE,142,3.0,3.0,-999,-99.99,,,-99.99,,2013-05-07 04:33:00,
2013-05-06 21:42:00,63.0,-99.9,-100.00,SSE,150,3.0,4.0,-999,-99.99,,,-99.99,,2013-05-07 04:42:00,
2013-05-06 21:53:00,62.0,-99.9,-100.00,SSE,150,5.0,6.0,-999,-99.99,,,-99.99,,2013-05-07 04:53:00,
2013-05-06 22:02:00,-999.0,-99.9,-100.00,SE,144,4.0,4.0,-999,-99.99,,,-99.99,,2013-05-07 05:02:00,
2013-05-06 22:13:00,60.0,-99.9,-100.00,SSE,155,5.0,6.0,-999,-99.99,,,-99.99,,2013-05-07 05:13:00,
2013-05-06 22:22:00,-999.0,-99.9,-100.00,SSE,148,6.0,7.0,-999,-99.99,,,-99.99,,2013-05-07 05:22:00,
2013-05-06 22:32:00,-999.0,-99.9,-100.00,SSE,151,6.0,7.0,-999,-99.99,,,-99.99,,2013-05-07 05:32:00,
2013-05-06 22:43:00,57.0,-99.9,-100.00,SE,143,4.0,7.0,-999,-99.99,,,-99.99,,2013-05-07 05:43:00,
2013-05-06 22:52:00,62.0,-99.9,-100.00,SSE,149,5.0,7.0,-999,-99.99,,,-99.99,,2013-05-07 05:52:00,
2013-05-06 23:02:00,-999.0,-99.9,-100.00,SSE,148,4.0,6.0,-999,-99.99,,,-99.99,,2013-05-07 06:02:00,
2013-05-06 23:12:00,56.0,-99.9,-100.00,SSE,156,5.0,7.0,-999,-99.99,,,-99.99,,2013-05-07 06:12:00,
2013-05-06 23:22:00,-999.0,-99.9,-100.00,South,178,5.0,6.0,-999,-99.99,,,-99.99,,2013-05-07 06:22:00,
2013-05-06 23:32:00,-999.0,-99.9,-100.00,South,188,6.0,7.0,-999,-99.99,,,-99.99,,2013-05-07 06:32:00,
2013-05-06 23:42:00,53.0,-99.9,-100.00,South,187,4.0,5.0,-999,-99.99,,,-99.99,,2013-05-07 06:42:00,
2013-05-06 23:53:00,53.0,-99.9,-100.00,North,-999,-999.0,-999.0,-999,-99.99,,,-99.99,,2013-05-07 06:53:00,